Hourly Weather Barlogi

Today, 25 September, Friday

Time Temperature Precipitation Wind Pressure Humidity
00:00 +16°C° 0 mm 2 mps 746 mmHg 79%
01:00 +16°C° 0 mm 2 mps 745 mmHg 82%
02:00 +16°C° 0 mm 2 mps 745 mmHg 83%
03:00 +16°C° 0 mm 3 mps 744 mmHg 84%
04:00 +14°C° 0 mm 3 mps 743 mmHg 85%
05:00 +16°C° 0.2 mm 3 mps 742 mmHg 84%
06:00 +16°C° 0.2 mm 3 mps 741 mmHg 83%
07:00 +17°C° 0.2 mm 3 mps 741 mmHg 82%
08:00 +17°C° 0.9 mm 3 mps 740 mmHg 85%
09:00 +15°C° 0.9 mm 4 mps 740 mmHg 88%
10:00 +15°C° 0.9 mm 4 mps 740 mmHg 90%
11:00 +15°C° 0.5 mm 4 mps 740 mmHg 89%
12:00 +16°C° 0.5 mm 3 mps 740 mmHg 88%
13:00 +16°C° 0.5 mm 2 mps 740 mmHg 87%
14:00 +16°C° 0.5 mm 3 mps 740 mmHg 85%
15:00 +16°C° 0.5 mm 3 mps 740 mmHg 82%
16:00 +17°C° 0.5 mm 3 mps 740 mmHg 80%
17:00 +16°C° 0.1 mm 3 mps 741 mmHg 82%
18:00 +14°C° 0.1 mm 3 mps 741 mmHg 85%
19:00 +13°C° 0.1 mm 3 mps 741 mmHg 87%
20:00 +14°C° 0 mm 2 mps 741 mmHg 86%
21:00 +13°C° 0 mm 2 mps 742 mmHg 86%
22:00 +13°C° 0 mm 2 mps 742 mmHg 85%
23:00 +13°C° 0 mm 2 mps 742 mmHg 84%

Tomorrow, 26 September, Saturday

Time Temperature Precipitation Wind Pressure Humidity
00:00 +13°C° 0 mm 2 mps 741 mmHg 84%
01:00 +12°C° 0 mm 1 mps 741 mmHg 83%
02:00 +12°C° 0.1 mm 2 mps 740 mmHg 83%
03:00 +11°C° 0.1 mm 3 mps 740 mmHg 83%
04:00 +11°C° 0.1 mm 3 mps 739 mmHg 83%
05:00 +11°C° 2.7 mm 4 mps 738 mmHg 87%
06:00 +10°C° 2.7 mm 4 mps 738 mmHg 91%
07:00 +9°C° 2.7 mm 5 mps 737 mmHg 95%
08:00 +10°C° 4 mm 5 mps 736 mmHg 95%
09:00 +10°C° 4 mm 5 mps 736 mmHg 95%
10:00 +12°C° 4 mm 5 mps 736 mmHg 96%
11:00 +13°C° 0.6 mm 5 mps 735 mmHg 94%
12:00 +14°C° 0.6 mm 4 mps 735 mmHg 92%
13:00 +15°C° 0.6 mm 4 mps 735 mmHg 90%
14:00 +14°C° 0.1 mm 5 mps 736 mmHg 87%
15:00 +13°C° 0.1 mm 6 mps 736 mmHg 84%
16:00 +11°C° 0.1 mm 6 mps 737 mmHg 81%
17:00 +10°C° 0 mm 6 mps 738 mmHg 81%
18:00 +9°C° 0 mm 5 mps 739 mmHg 80%
19:00 +7°C° 0 mm 4 mps 739 mmHg 80%
20:00 +7°C° 0 mm 4 mps 740 mmHg 82%
21:00 +8°C° 0 mm 3 mps 741 mmHg 84%
22:00 +7°C° 0 mm 3 mps 742 mmHg 85%
23:00 +8°C° 0 mm 2 mps 742 mmHg 85%

Day after tomorrow, 27 September, Sunday

Time Temperature Precipitation Wind Pressure Humidity
00:00 +8°C° 0 mm 2 mps 742 mmHg 84%
01:00 +8°C° 0 mm 2 mps 743 mmHg 84%
02:00 +8°C° 0 mm 2 mps 743 mmHg 84%
03:00 +8°C° 0 mm 2 mps 743 mmHg 85%
04:00 +8°C° 0 mm 2 mps 743 mmHg 85%
05:00 +8°C° 0 mm 2 mps 743 mmHg 84%
06:00 +8°C° 0 mm 2 mps 743 mmHg 83%
07:00 +8°C° 0 mm 2 mps 743 mmHg 82%
08:00 +10°C° 0 mm 2 mps 743 mmHg 77%
09:00 +12°C° 0 mm 2 mps 743 mmHg 73%
10:00 +13°C° 0 mm 2 mps 743 mmHg 68%
11:00 +13°C° 0 mm 2 mps 743 mmHg 67%
12:00 +14°C° 0 mm 2 mps 743 mmHg 65%
13:00 +14°C° 0 mm 2 mps 743 mmHg 64%
14:00 +14°C° 0.2 mm 2 mps 743 mmHg 68%
15:00 +14°C° 0.2 mm 2 mps 744 mmHg 72%
16:00 +13°C° 0.2 mm 2 mps 744 mmHg 76%
17:00 +13°C° 0.3 mm 2 mps 744 mmHg 80%
18:00 +13°C° 0.3 mm 2 mps 744 mmHg 84%
19:00 +12°C° 0.3 mm 1 mps 745 mmHg 88%
20:00 +12°C° 0.6 mm 2 mps 745 mmHg 88%
21:00 +11°C° 0.6 mm 3 mps 745 mmHg 88%
22:00 +10°C° 0.6 mm 3 mps 745 mmHg 89%
23:00 +10°C° 0.6 mm 3 mps 745 mmHg 89%

28 September, Monday

Time Temperature Precipitation Wind Pressure Humidity
00:00 +10°C° 0.6 mm 4 mps 745 mmHg 90%
01:00 +10°C° 0.6 mm 4 mps 745 mmHg 90%
02:00 +10°C° 0.9 mm 4 mps 745 mmHg 90%
03:00 +10°C° 0.9 mm 4 mps 745 mmHg 91%
04:00 +10°C° 0.9 mm 4 mps 745 mmHg 91%
05:00 +10°C° 0.7 mm 4 mps 745 mmHg 91%
06:00 +10°C° 0.7 mm 4 mps 745 mmHg 91%
07:00 +9°C° 0.7 mm 5 mps 745 mmHg 91%
08:00 +9°C° 0.6 mm 5 mps 745 mmHg 91%
09:00 +9°C° 0.6 mm 5 mps 746 mmHg 90%
10:00 +9°C° 0.6 mm 5 mps 746 mmHg 90%
11:00 +9°C° 0.5 mm 5 mps 746 mmHg 90%
12:00 +10°C° 0.5 mm 4 mps 746 mmHg 90%
13:00 +10°C° 0.5 mm 4 mps 746 mmHg 90%
14:00 +10°C° 0.4 mm 4 mps 746 mmHg 90%
15:00 +10°C° 0.4 mm 4 mps 746 mmHg 91%
16:00 +11°C° 0.4 mm 3 mps 745 mmHg 91%
17:00 +10°C° 1.2 mm 3 mps 745 mmHg 92%
18:00 +10°C° 1.2 mm 3 mps 746 mmHg 93%
19:00 +10°C° 1.2 mm 3 mps 746 mmHg 94%
20:00 +10°C° 0.8 mm 3 mps 746 mmHg 95%
21:00 +10°C° 0.8 mm 3 mps 746 mmHg 95%
22:00 +10°C° 0.8 mm 2 mps 746 mmHg 95%
23:00 +12°C° 0.9 mm 2 mps 746 mmHg 96%

29 September, Tuesday

Time Temperature Precipitation Wind Pressure Humidity
00:00 +12°C° 0.9 mm 2 mps 746 mmHg 96%
01:00 +12°C° 0.9 mm 2 mps 747 mmHg 96%
02:00 +12°C° 0.2 mm 2 mps 747 mmHg 96%
03:00 +11°C° 0.2 mm 3 mps 748 mmHg 96%
04:00 +10°C° 0.2 mm 3 mps 748 mmHg 96%
05:00 +10°C° 0.3 mm 3 mps 749 mmHg 96%
06:00 +11°C° 0.3 mm 3 mps 750 mmHg 96%
07:00 +11°C° 0.3 mm 3 mps 751 mmHg 95%
08:00 +11°C° 0.1 mm 3 mps 751 mmHg 92%
09:00 +12°C° 0.1 mm 3 mps 752 mmHg 89%
10:00 +13°C° 0.1 mm 3 mps 752 mmHg 86%
11:00 +14°C° 0.1 mm 3 mps 753 mmHg 82%
12:00 +14°C° 0.1 mm 3 mps 753 mmHg 78%
13:00 +16°C° 0.1 mm 3 mps 753 mmHg 73%
14:00 +16°C° 0 mm 3 mps 754 mmHg 72%
15:00 +17°C° 0 mm 3 mps 754 mmHg 70%
16:00 +17°C° 0 mm 3 mps 754 mmHg 69%
17:00 +14°C° 0 mm 3 mps 754 mmHg 75%
18:00 +14°C° 0 mm 2 mps 755 mmHg 81%
19:00 +13°C° 0 mm 2 mps 755 mmHg 86%
20:00 +12°C° 0 mm 2 mps 755 mmHg 88%
21:00 +12°C° 0 mm 2 mps 755 mmHg 90%
22:00 +10°C° 0 mm 2 mps 755 mmHg 92%
23:00 +10°C° 0 mm 2 mps 755 mmHg 93%

30 September, Wednesday

Time Temperature Precipitation Wind Pressure Humidity
00:00 +9°C° 0 mm 2 mps 755 mmHg 94%
01:00 +9°C° 0 mm 2 mps 755 mmHg 95%
02:00 +9°C° 0 mm 2 mps 755 mmHg 95%
03:00 +9°C° 0 mm 2 mps 755 mmHg 96%
04:00 +8°C° 0 mm 2 mps 754 mmHg 96%
05:00 +8°C° 0 mm 2 mps 754 mmHg 95%
06:00 +9°C° 0 mm 2 mps 754 mmHg 95%
07:00 +9°C° 0 mm 2 mps 754 mmHg 95%
08:00 +12°C° 0 mm 2 mps 754 mmHg 87%
09:00 +13°C° 0 mm 2 mps 753 mmHg 80%
10:00 +15°C° 0 mm 2 mps 753 mmHg 72%
11:00 +16°C° 0 mm 3 mps 753 mmHg 68%
12:00 +17°C° 0 mm 3 mps 752 mmHg 63%
13:00 +18°C° 0 mm 4 mps 752 mmHg 59%
14:00 +18°C° 0 mm 4 mps 751 mmHg 59%
15:00 +18°C° 0 mm 4 mps 751 mmHg 60%
16:00 +17°C° 0 mm 4 mps 750 mmHg 61%
17:00 +16°C° 0 mm 3 mps 750 mmHg 67%
18:00 +13°C° 0 mm 3 mps 750 mmHg 73%
19:00 +13°C° 0 mm 2 mps 750 mmHg 79%
20:00 +13°C° 0 mm 2 mps 750 mmHg 81%
21:00 +11°C° 0 mm 3 mps 750 mmHg 82%
22:00 +11°C° 0 mm 3 mps 750 mmHg 84%
23:00 +11°C° 0 mm 3 mps 749 mmHg 84%
Show more